Weather History for KISP - August, 2013

Change the Weather History Date:

Sunday, August 4, 2013

  Actual Average Record
Temperature  
Mean Temperature 73 °F 74 °F  
Max Temperature 82 °F 82 °F 91 °F (1989)
Min Temperature 64 °F 66 °F 59 °F (1985)
Degree Days  
Heating Degree Days 0 0  
Month to date heating degree days 0 0  
Since 1 June heating degree days 12 40  
Since 1 July heating degree days 0 2  
Cooling Degree Days 8 9  
Month to date cooling degree days 36 36  
Year to date cooling degree days 646 476  
Since 1 June cooling degree days 614 452  
Growing Degree Days 22 (Base 50)    
Moisture  
Dew Point 57 °F    
Average Humidity 65    
Maximum Humidity 93    
Minimum Humidity 36    
Precipitation  
Precipitation 0.00 in 0.13 in 0.52 in (1991)
Month to date precipitation 0.31 0.49  
Year to date precipitation 26.15 27.65  
Snow  
Snow 0.00 in 0.00 in - ()
Month to date snowfall 0.0 0.0  
Since 1 July snowfall 0.0 0.0  
Snow Depth 0.00 in    
Sea Level Pressure  
Sea Level Pressure 29.86 in    
Wind  
Wind Speed 8 mph (NNW)    
Max Wind Speed 22 mph    
Max Gust Speed 28 mph    
Visibility 10 miles    
Events      
T = Trace of Precipitation, MM = Missing Value Source: NWS Daily Summary

Daily Weather History Graph

Daily Weather History Graph

Search for Another Location

Airport or City:

Trip Planner

Search our weather history database for the weather conditions in past years. The results will help you decide how hot, cold, wet, or windy it might be!

Date:

Astronomy

Aug. 04, 2013 Rise Set
Actual Time 5:51 AM EDT 8:04 PM EDT
Civil Twilight 5:21 AM EDT 8:34 PM EDT
Nautical Twilight 4:44 AM EDT 9:12 PM EDT
Astronomical Twilight 4:02 AM EDT 9:52 PM EDT
Moon 3:50 AM EDT (8/4) 6:25 PM EDT (8/4)
Length of Visible Light 15h 13m
Length of Day
14h 12m
Waning Crescent, 5% of the Moon is Illuminated
Aug 4
Waning Crescent
Aug 6
New
Aug 14
First Quarter
Aug 20
Full
Aug 28
Last Quarter

Hourly Weather History & Observations

Time (EDT) Temp. Heat Index Dew Point Humidity Pressure Visibility Wind Dir Wind Speed Gust Speed Precip Events Conditions
12:56 AM 68.0 °F - 63.0 °F 84% 29.85 in 10.0 mi WNW 4.6 mph - N/A   Mostly Cloudy
1:56 AM 66.9 °F - 63.0 °F 87% 29.84 in 10.0 mi NW 5.8 mph - N/A   Clear
2:56 AM 66.0 °F - 63.0 °F 90% 29.84 in 10.0 mi North 5.8 mph - N/A   Clear
3:56 AM 66.9 °F - 64.0 °F 90% 29.84 in 10.0 mi North 6.9 mph - N/A   Overcast
4:56 AM 66.0 °F - 63.0 °F 90% 29.84 in 10.0 mi North 5.8 mph - N/A   Overcast
5:56 AM 64.9 °F - 61.0 °F 87% 29.84 in 10.0 mi North 5.8 mph - N/A   Scattered Clouds
6:56 AM 66.9 °F - 61.0 °F 81% 29.85 in 10.0 mi NNW 5.8 mph - N/A   Scattered Clouds
7:56 AM 71.1 °F - 60.1 °F 68% 29.86 in 10.0 mi NNW 9.2 mph - N/A   Scattered Clouds
8:56 AM 73.9 °F - 57.0 °F 55% 29.86 in 10.0 mi NNW 8.1 mph - N/A   Scattered Clouds
9:56 AM 75.9 °F - 55.0 °F 48% 29.86 in 10.0 mi NW 8.1 mph - N/A   Scattered Clouds
10:56 AM 77.0 °F - 53.1 °F 43% 29.86 in 10.0 mi NW 5.8 mph - N/A   Scattered Clouds
11:56 AM 79.0 °F - 52.0 °F 39% 29.86 in 10.0 mi North 9.2 mph - N/A   Scattered Clouds
12:56 PM 78.1 °F - 54.0 °F 43% 29.85 in 10.0 mi NW 11.5 mph 17.3 mph N/A   Mostly Cloudy
1:56 PM 80.1 °F - 52.0 °F 38% 29.83 in 10.0 mi NW 8.1 mph - N/A   Mostly Cloudy
2:56 PM 81.0 °F 80.4 °F 53.1 °F 38% 29.83 in 10.0 mi NNW 10.4 mph 17.3 mph N/A   Mostly Cloudy
3:56 PM 81.0 °F 80.5 °F 54.0 °F 39% 29.82 in 10.0 mi NW 12.7 mph 23.0 mph N/A   Scattered Clouds
4:56 PM 81.0 °F 80.4 °F 53.1 °F 38% 29.82 in 10.0 mi NW 15.0 mph 21.9 mph N/A   Scattered Clouds
5:56 PM 78.1 °F - 54.0 °F 43% 29.83 in 10.0 mi NNW 18.4 mph 23.0 mph N/A   Scattered Clouds
6:56 PM 73.9 °F - 55.0 °F 52% 29.85 in 10.0 mi NW 11.5 mph - N/A   Scattered Clouds
7:56 PM 72.0 °F - 54.0 °F 53% 29.87 in 10.0 mi NW 6.9 mph - N/A   Scattered Clouds
8:56 PM 68.0 °F - 55.9 °F 65% 29.89 in 10.0 mi North 3.5 mph - N/A   Scattered Clouds
9:56 PM 66.9 °F - 55.9 °F 68% 29.92 in 10.0 mi NW 6.9 mph - N/A   Partly Cloudy
10:56 PM 66.9 °F - 57.0 °F 70% 29.92 in 10.0 mi NW 6.9 mph - N/A   Partly Cloudy
11:56 PM 64.9 °F - 57.0 °F 75% 29.93 in 10.0 mi NNW 6.9 mph - N/A   Clear